Year,Month,Day,Hour,Minute,Value (Times are PST for temperature in C)
2018,10,21,00,00,6.40
2018,10,21,00,01,6.40
2018,10,21,00,02,6.40
2018,10,21,00,03,6.40
2018,10,21,00,04,6.40
2018,10,21,00,05,6.40
2018,10,21,00,06,6.40
2018,10,21,01,47,5.70
2018,10,21,01,48,5.70
2018,10,21,01,49,5.70
2018,10,21,01,50,5.60
2018,10,21,01,51,5.60
2018,10,21,01,52,5.60
2018,10,21,01,53,5.60
2018,10,21,01,54,5.60
2018,10,21,01,55,5.60
2018,10,21,01,56,5.60
2018,10,21,01,57,5.60
2018,10,21,01,58,5.60
2018,10,21,01,59,5.60
2018,10,21,02,00,5.60
2018,10,21,02,01,5.60
2018,10,21,02,02,5.60
2018,10,21,02,03,5.60
2018,10,21,02,04,5.60
2018,10,21,02,05,5.60
2018,10,21,02,06,5.60
2018,10,21,02,07,5.60
2018,10,21,02,08,5.60
2018,10,21,02,09,5.60
2018,10,21,02,10,5.60
2018,10,21,02,11,5.60
2018,10,21,02,12,5.60
2018,10,21,02,13,5.60
2018,10,21,02,14,5.60
2018,10,21,02,15,5.60
2018,10,21,02,16,5.60
2018,10,21,02,17,5.60
2018,10,21,02,18,5.60
2018,10,21,02,19,5.70
2018,10,21,02,20,5.70
2018,10,21,02,21,5.70
2018,10,21,02,22,5.70
2018,10,21,02,23,5.70
2018,10,21,02,24,5.70
2018,10,21,02,25,5.70
2018,10,21,02,26,5.70
2018,10,21,02,27,5.70
2018,10,21,02,28,5.70
2018,10,21,02,29,5.70
2018,10,21,02,30,5.70
2018,10,21,02,31,5.70
2018,10,21,02,32,5.70
2018,10,21,02,33,5.70
2018,10,21,02,34,5.70
2018,10,21,02,35,5.70
2018,10,21,02,36,5.60
2018,10,21,02,37,5.60
2018,10,21,02,38,5.60
2018,10,21,02,39,5.60
2018,10,21,02,40,5.60
2018,10,21,02,41,5.60
2018,10,21,02,42,5.60
2018,10,21,02,43,5.60
2018,10,21,02,44,5.60
2018,10,21,02,45,5.60
2018,10,21,02,46,5.60
2018,10,21,02,47,5.60
2018,10,21,02,48,5.50
2018,10,21,02,49,5.50
2018,10,21,02,50,5.50
2018,10,21,02,51,5.50
2018,10,21,02,52,5.50
2018,10,21,02,53,5.50
2018,10,21,02,54,5.50
2018,10,21,02,55,5.50
2018,10,21,02,56,5.50
2018,10,21,02,57,5.50
2018,10,21,02,58,5.50
2018,10,21,02,59,5.50
2018,10,21,03,00,5.50
2018,10,21,03,01,5.50
2018,10,21,03,02,5.50
2018,10,21,03,03,5.50
2018,10,21,03,04,5.50
2018,10,21,03,05,5.50
2018,10,21,03,06,5.50
2018,10,21,03,07,5.50
2018,10,21,03,08,5.40
2018,10,21,03,09,5.40
2018,10,21,03,10,5.40
2018,10,21,03,11,5.40
2018,10,21,03,12,5.40
2018,10,21,03,13,5.30
2018,10,21,03,14,5.30
2018,10,21,03,15,5.30
2018,10,21,03,16,5.30
2018,10,21,03,17,5.30
2018,10,21,03,18,5.30
2018,10,21,03,19,5.30
2018,10,21,03,20,5.30
2018,10,21,03,21,5.20
2018,10,21,03,22,5.20
2018,10,21,03,23,5.20
2018,10,21,03,24,5.20
2018,10,21,03,25,5.20
2018,10,21,03,26,5.10
2018,10,21,03,27,5.10
2018,10,21,03,28,5.10
2018,10,21,03,29,5.10
2018,10,21,03,30,5.20
2018,10,21,03,31,5.20
2018,10,21,03,32,5.20
2018,10,21,03,33,5.20
2018,10,21,03,34,5.20
2018,10,21,03,35,5.30
2018,10,21,03,36,5.30
2018,10,21,03,37,5.30
2018,10,21,03,38,5.30
2018,10,21,03,39,5.30
2018,10,21,03,40,5.30
2018,10,21,03,41,5.30
2018,10,21,03,42,5.30
2018,10,21,03,43,5.20
2018,10,21,03,44,5.20
2018,10,21,03,45,5.20
2018,10,21,03,46,5.20
2018,10,21,03,47,5.20
2018,10,21,03,48,5.20
2018,10,21,03,49,5.20
2018,10,21,03,50,5.20
2018,10,21,03,51,5.10
2018,10,21,03,52,5.10
2018,10,21,03,53,5.10
2018,10,21,03,54,5.10
2018,10,21,03,55,5.10
2018,10,21,03,56,5.10
2018,10,21,03,57,5.10
2018,10,21,03,58,5.10
2018,10,21,03,59,5.10
2018,10,21,04,00,5.10
2018,10,21,04,01,5.00
2018,10,21,04,02,4.90
2018,10,21,04,03,4.90
2018,10,21,04,04,4.90
2018,10,21,04,05,4.90
2018,10,21,04,06,4.90
2018,10,21,04,07,4.90
2018,10,21,04,08,4.90
2018,10,21,04,09,4.90
2018,10,21,04,10,4.90
2018,10,21,04,11,4.90
2018,10,21,04,12,4.90
2018,10,21,04,13,4.90
2018,10,21,04,14,4.90
2018,10,21,04,15,4.90
2018,10,21,04,16,4.90
2018,10,21,04,17,4.90
2018,10,21,04,18,4.90
2018,10,21,04,19,4.90
2018,10,21,04,20,4.90
2018,10,21,04,21,4.90
2018,10,21,04,22,4.90
2018,10,21,04,23,4.90
2018,10,21,04,24,4.90
2018,10,21,04,25,4.90
2018,10,21,04,26,4.90
2018,10,21,04,27,4.90
2018,10,21,04,28,4.90
2018,10,21,04,29,4.80
2018,10,21,04,30,4.80
2018,10,21,04,31,4.80
2018,10,21,04,32,4.80
2018,10,21,04,33,4.80
2018,10,21,04,34,4.80
2018,10,21,04,35,4.80
2018,10,21,04,36,4.80
2018,10,21,04,37,4.80
2018,10,21,04,38,4.80
2018,10,21,04,39,4.80
2018,10,21,04,40,4.80
2018,10,21,04,41,4.80
2018,10,21,04,42,4.80
2018,10,21,04,43,4.80
2018,10,21,04,44,4.70
2018,10,21,04,45,4.70
2018,10,21,04,46,4.70
2018,10,21,04,47,4.70
2018,10,21,04,48,4.70
2018,10,21,04,49,4.70
2018,10,21,04,50,4.70
2018,10,21,04,51,4.70
2018,10,21,04,52,4.80
2018,10,21,04,53,4.80
2018,10,21,04,54,4.80
2018,10,21,04,55,4.80
2018,10,21,04,56,4.80
2018,10,21,04,57,4.80
2018,10,21,04,58,4.80
2018,10,21,04,59,4.80
2018,10,21,05,00,4.80
2018,10,21,05,01,4.80
2018,10,21,05,02,4.80
2018,10,21,05,03,4.80
2018,10,21,05,04,4.80
2018,10,21,05,05,4.80
2018,10,21,05,06,4.80
2018,10,21,05,07,4.80
2018,10,21,05,08,4.80
2018,10,21,05,09,4.80
2018,10,21,05,10,4.80
2018,10,21,05,11,4.80
2018,10,21,05,12,4.80
2018,10,21,05,13,4.80
2018,10,21,05,14,4.80
2018,10,21,05,15,4.80
2018,10,21,05,16,4.80
2018,10,21,05,17,4.80
2018,10,21,05,18,4.80
2018,10,21,05,19,4.80
2018,10,21,05,20,4.80
2018,10,21,05,21,4.80
2018,10,21,05,22,4.80
2018,10,21,05,23,4.80
2018,10,21,05,24,4.80
2018,10,21,05,25,4.80
2018,10,21,05,26,4.80
2018,10,21,05,27,4.80
2018,10,21,05,28,4.80
2018,10,21,05,29,4.70
2018,10,21,05,30,4.70
2018,10,21,05,31,4.70
2018,10,21,05,32,4.70
2018,10,21,05,33,4.70
2018,10,21,05,34,4.60
2018,10,21,05,35,4.60
2018,10,21,05,36,4.60
2018,10,21,05,37,4.60
2018,10,21,05,38,4.60
2018,10,21,05,39,4.60
2018,10,21,05,40,4.60
2018,10,21,05,41,4.60
2018,10,21,05,42,4.60
2018,10,21,05,43,4.50
2018,10,21,05,44,4.50
2018,10,21,05,45,4.50
2018,10,21,05,46,4.50
2018,10,21,05,47,4.50
2018,10,21,05,48,4.50
2018,10,21,05,49,4.50
2018,10,21,05,50,4.50
2018,10,21,05,51,4.40
2018,10,21,05,52,4.40
2018,10,21,05,53,4.40
2018,10,21,05,54,4.40
2018,10,21,05,55,4.40
2018,10,21,05,56,4.40
2018,10,21,05,57,4.40
2018,10,21,05,58,4.40
2018,10,21,05,59,4.40
2018,10,21,06,00,4.40
2018,10,21,06,01,4.40
2018,10,21,06,02,4.40
2018,10,21,06,03,4.40
2018,10,21,06,04,4.40
2018,10,21,06,05,4.40
2018,10,21,06,06,4.40
2018,10,21,06,07,4.40
2018,10,21,06,08,4.50
2018,10,21,06,09,4.50
2018,10,21,06,10,4.50
2018,10,21,06,11,4.50
2018,10,21,06,12,4.50
2018,10,21,06,13,4.50
2018,10,21,06,14,4.50
2018,10,21,06,15,4.50
2018,10,21,06,16,4.50
2018,10,21,06,17,4.50
2018,10,21,06,18,4.50
2018,10,21,06,19,4.50
2018,10,21,06,20,4.50
2018,10,21,06,21,4.50
2018,10,21,06,22,4.50
2018,10,21,06,23,4.50
2018,10,21,06,24,4.50
2018,10,21,06,25,4.50
2018,10,21,06,26,4.50
2018,10,21,06,27,4.50
2018,10,21,06,28,4.50
2018,10,21,06,29,4.50
2018,10,21,06,30,4.50
2018,10,21,06,31,4.50
2018,10,21,06,32,4.50
2018,10,21,06,33,4.50
2018,10,21,06,34,4.50
2018,10,21,06,35,4.40
2018,10,21,06,36,4.40
2018,10,21,06,37,4.40
2018,10,21,06,38,4.50
2018,10,21,06,39,4.50
2018,10,21,06,40,4.50
2018,10,21,06,41,4.50
2018,10,21,06,42,4.40
2018,10,21,06,43,4.40
2018,10,21,06,44,4.40
2018,10,21,06,45,4.40
2018,10,21,06,46,4.40
2018,10,21,06,47,4.40
2018,10,21,06,48,4.40
2018,10,21,06,49,4.40
2018,10,21,06,50,4.40
2018,10,21,06,51,4.40
2018,10,21,06,52,4.40
2018,10,21,06,53,4.40
2018,10,21,06,54,4.40
2018,10,21,06,55,4.30
2018,10,21,06,56,4.30
2018,10,21,06,57,4.30
2018,10,21,06,58,4.30
2018,10,21,06,59,4.30
2018,10,21,07,00,4.30
2018,10,21,07,01,4.30
2018,10,21,07,02,4.30
2018,10,21,07,03,4.30
2018,10,21,07,04,4.30
2018,10,21,07,05,4.30
2018,10,21,07,06,4.30
2018,10,21,07,07,4.30
2018,10,21,07,08,4.30
2018,10,21,07,09,4.30
2018,10,21,07,10,4.30
2018,10,21,07,11,4.30
2018,10,21,07,12,4.30
2018,10,21,07,13,4.20
2018,10,21,07,14,4.20
2018,10,21,07,15,4.20
2018,10,21,07,16,4.20
2018,10,21,07,17,4.20
2018,10,21,07,18,4.20
2018,10,21,07,19,4.20
2018,10,21,07,20,4.20
2018,10,21,07,21,4.20
2018,10,21,07,22,4.10
2018,10,21,07,23,4.10
2018,10,21,07,24,4.10
2018,10,21,07,25,4.10
2018,10,21,07,26,4.00
2018,10,21,07,27,4.00
2018,10,21,07,28,4.00
2018,10,21,07,29,4.00
2018,10,21,07,30,3.90
2018,10,21,07,31,3.90
2018,10,21,07,32,3.90
2018,10,21,07,33,3.90
2018,10,21,07,34,3.90
2018,10,21,07,35,3.90
2018,10,21,07,36,3.90
2018,10,21,07,37,3.80
2018,10,21,07,38,3.80
2018,10,21,07,39,3.80
2018,10,21,07,40,3.80
2018,10,21,07,41,3.80
2018,10,21,07,42,3.80
2018,10,21,07,43,3.80
2018,10,21,07,44,3.80
2018,10,21,07,45,3.80
2018,10,21,07,46,3.80
2018,10,21,07,47,3.80
2018,10,21,07,48,3.80
2018,10,21,07,49,3.80
2018,10,21,07,50,3.80
2018,10,21,07,51,3.80
2018,10,21,07,52,3.80
2018,10,21,07,53,3.90
2018,10,21,07,54,3.90
2018,10,21,07,55,3.90
2018,10,21,07,56,3.90
2018,10,21,07,57,3.90
2018,10,21,07,58,3.90
2018,10,21,07,59,3.90
2018,10,21,08,00,3.90
2018,10,21,08,01,3.90
2018,10,21,08,02,4.00
2018,10,21,08,03,4.00
2018,10,21,08,04,4.00
2018,10,21,08,05,4.00
2018,10,21,08,06,4.00
2018,10,21,08,07,4.10
2018,10,21,08,08,4.10
2018,10,21,08,09,4.10
2018,10,21,08,10,4.10
2018,10,21,08,11,4.20
2018,10,21,08,12,4.20
2018,10,21,08,13,4.20
2018,10,21,08,14,4.20
2018,10,21,08,15,4.30
2018,10,21,08,16,4.30
2018,10,21,08,17,4.40
2018,10,21,08,18,4.40
2018,10,21,08,19,4.40
2018,10,21,08,20,4.50
2018,10,21,08,21,4.50
2018,10,21,08,22,4.50
2018,10,21,08,23,4.50
2018,10,21,08,24,4.50
2018,10,21,08,25,4.50
2018,10,21,08,26,4.60
2018,10,21,08,27,4.60
2018,10,21,08,28,4.60
2018,10,21,08,29,4.60
2018,10,21,08,30,4.70
2018,10,21,08,31,4.70
2018,10,21,08,32,4.80
2018,10,21,08,33,4.80
2018,10,21,08,34,4.80
2018,10,21,08,35,4.80
2018,10,21,08,36,4.90
2018,10,21,08,37,4.90
2018,10,21,08,38,4.90
2018,10,21,08,39,4.90
2018,10,21,08,40,4.90
2018,10,21,08,41,4.90
2018,10,21,08,42,4.90
2018,10,21,08,43,4.90
2018,10,21,08,44,4.90
2018,10,21,08,45,4.90
2018,10,21,08,46,4.90
2018,10,21,08,47,5.00
2018,10,21,08,48,5.10
2018,10,21,08,49,5.10
2018,10,21,08,50,5.10
2018,10,21,08,51,5.10
2018,10,21,08,52,5.10
2018,10,21,08,53,5.20
2018,10,21,08,54,5.30
2018,10,21,08,55,5.30
2018,10,21,08,56,5.40
2018,10,21,08,57,5.40
2018,10,21,08,58,5.50
2018,10,21,08,59,5.60
2018,10,21,09,00,5.70
2018,10,21,09,01,5.80
2018,10,21,09,02,5.90
2018,10,21,09,03,6.00
2018,10,21,09,04,6.10
2018,10,21,09,05,6.10
2018,10,21,09,06,6.20
2018,10,21,09,07,6.20
2018,10,21,09,08,6.20
2018,10,21,09,09,6.20
2018,10,21,09,10,6.20
2018,10,21,09,11,6.30
2018,10,21,09,12,6.30
2018,10,21,09,13,6.40
2018,10,21,09,14,6.40
2018,10,21,09,15,6.50
2018,10,21,09,16,6.60
2018,10,21,09,17,6.60
2018,10,21,09,18,6.70
2018,10,21,09,19,6.70
2018,10,21,09,20,6.80
2018,10,21,09,21,6.90
2018,10,21,09,22,6.90
2018,10,21,09,23,7.00
2018,10,21,09,24,7.10
2018,10,21,09,25,7.10
2018,10,21,09,26,7.20
2018,10,21,09,27,7.30
2018,10,21,09,28,7.30
2018,10,21,09,29,7.30
2018,10,21,09,30,7.30
2018,10,21,09,31,7.30
2018,10,21,09,32,7.30
2018,10,21,09,33,7.30
2018,10,21,09,34,7.30
2018,10,21,09,35,7.30
2018,10,21,09,36,7.30
2018,10,21,09,37,7.30
2018,10,21,09,38,7.30
2018,10,21,09,39,7.30
2018,10,21,09,40,7.40
2018,10,21,09,41,7.40
2018,10,21,09,42,7.50
2018,10,21,09,43,7.50
2018,10,21,09,44,7.60
2018,10,21,09,45,7.60
2018,10,21,09,46,7.70
2018,10,21,09,47,7.70
2018,10,21,09,48,7.80
2018,10,21,09,49,7.80
2018,10,21,09,50,7.90
2018,10,21,09,51,8.00
2018,10,21,09,52,8.00
2018,10,21,09,53,8.10
2018,10,21,09,54,8.10
2018,10,21,09,55,8.20
2018,10,21,09,56,8.20
2018,10,21,09,57,8.30
2018,10,21,09,58,8.30
2018,10,21,09,59,8.40
2018,10,21,10,00,8.50
2018,10,21,10,01,8.50
2018,10,21,10,02,8.60
2018,10,21,10,03,8.70
2018,10,21,10,04,8.70
2018,10,21,10,05,8.70
2018,10,21,10,06,8.70
2018,10,21,10,07,8.80
2018,10,21,10,08,8.80
2018,10,21,10,09,8.90
2018,10,21,10,10,8.90
2018,10,21,10,11,9.00
2018,10,21,10,12,9.00
2018,10,21,10,13,9.10
2018,10,21,10,14,9.10
2018,10,21,10,15,9.20
2018,10,21,10,16,9.20
2018,10,21,10,17,9.30
2018,10,21,10,18,9.30
2018,10,21,10,19,9.40
2018,10,21,10,20,9.40
2018,10,21,10,21,9.50
2018,10,21,10,22,9.60
2018,10,21,10,23,9.60
2018,10,21,10,24,9.70
2018,10,21,10,25,9.70
2018,10,21,10,26,9.80
2018,10,21,10,27,9.90
2018,10,21,10,28,9.90
2018,10,21,10,29,10.00
2018,10,21,10,30,10.10
2018,10,21,10,31,10.10
2018,10,21,10,32,10.20
2018,10,21,10,33,10.30
2018,10,21,10,34,10.40
2018,10,21,10,35,10.50
2018,10,21,10,36,10.60
2018,10,21,10,37,10.60
2018,10,21,10,38,10.60
2018,10,21,10,39,10.60
2018,10,21,10,40,10.70
2018,10,21,10,41,10.70
2018,10,21,10,42,10.80
2018,10,21,10,43,10.90
2018,10,21,10,44,10.90
2018,10,21,10,45,11.00
2018,10,21,10,46,11.10
2018,10,21,10,47,11.20
2018,10,21,10,48,11.30
2018,10,21,10,49,11.40
2018,10,21,10,50,11.50
2018,10,21,10,51,11.60
2018,10,21,10,52,11.60
2018,10,21,10,53,11.80
2018,10,21,10,54,11.80
2018,10,21,10,55,11.90
2018,10,21,10,56,12.00
2018,10,21,10,57,12.00
2018,10,21,10,58,12.20
2018,10,21,10,59,12.30
2018,10,21,11,00,12.40
2018,10,21,11,01,12.50
2018,10,21,11,02,12.60
2018,10,21,11,03,12.70
2018,10,21,11,04,12.80
2018,10,21,11,05,12.90
2018,10,21,11,06,13.00
2018,10,21,11,07,13.10
2018,10,21,11,08,13.20
2018,10,21,11,09,13.20
2018,10,21,11,10,13.20
2018,10,21,11,11,13.30
2018,10,21,11,12,13.30
2018,10,21,11,13,13.40
2018,10,21,11,14,13.50
2018,10,21,11,15,13.70
2018,10,21,11,16,13.70
2018,10,21,11,17,13.70
2018,10,21,11,18,13.80
2018,10,21,11,19,13.90
2018,10,21,11,20,13.90
2018,10,21,11,21,14.00
2018,10,21,11,22,14.10
2018,10,21,11,23,14.20
2018,10,21,11,24,14.20
2018,10,21,11,25,14.40
2018,10,21,11,26,14.60
2018,10,21,11,27,14.60
2018,10,21,11,28,14.70
2018,10,21,11,29,14.80
2018,10,21,11,30,14.80
2018,10,21,11,31,14.90
2018,10,21,11,32,15.00
2018,10,21,11,33,15.10
2018,10,21,11,34,15.20
2018,10,21,11,35,15.30
2018,10,21,11,36,15.30
2018,10,21,11,37,15.30
2018,10,21,11,38,15.40
2018,10,21,11,39,15.50
2018,10,21,11,40,15.50
2018,10,21,11,41,15.60
2018,10,21,11,42,15.60
2018,10,21,11,43,15.50
2018,10,21,11,44,15.30
2018,10,21,11,45,15.00
2018,10,21,11,46,14.80
2018,10,21,11,47,14.60
2018,10,21,11,48,14.50
2018,10,21,11,49,14.20
2018,10,21,11,50,14.00
2018,10,21,11,51,13.90
2018,10,21,11,52,13.70
2018,10,21,11,53,13.70
2018,10,21,11,54,13.60
2018,10,21,11,55,13.60
2018,10,21,11,56,13.60
2018,10,21,11,57,13.50
2018,10,21,11,58,13.50
2018,10,21,11,59,13.50
2018,10,21,12,00,13.50
2018,10,21,12,01,13.40
2018,10,21,12,02,13.40
2018,10,21,12,03,13.30
2018,10,21,12,04,13.30
2018,10,21,12,05,13.30
2018,10,21,12,06,13.30
2018,10,21,12,07,13.30
2018,10,21,12,08,13.30
2018,10,21,12,09,13.30
2018,10,21,12,10,13.30
2018,10,21,12,11,13.30
2018,10,21,12,12,13.30
2018,10,21,12,13,13.20
2018,10,21,12,14,13.20
2018,10,21,12,15,13.20
2018,10,21,12,16,13.10
2018,10,21,12,17,13.10
2018,10,21,12,18,13.10
2018,10,21,12,19,13.10
2018,10,21,12,20,13.20
2018,10,21,12,21,13.20
2018,10,21,12,22,13.20
2018,10,21,12,23,13.20
2018,10,21,12,24,13.20
2018,10,21,12,25,13.20
2018,10,21,12,26,13.20
2018,10,21,12,27,13.30
2018,10,21,12,28,13.30
2018,10,21,12,29,13.40
2018,10,21,12,30,13.40
2018,10,21,12,31,13.50
2018,10,21,12,32,13.50
2018,10,21,12,33,13.50
2018,10,21,12,34,13.50
2018,10,21,12,35,13.50
2018,10,21,12,36,13.50
2018,10,21,12,37,13.60
2018,10,21,12,38,13.70
2018,10,21,12,39,13.70
2018,10,21,12,40,13.60
2018,10,21,12,41,13.60
2018,10,21,12,42,13.60
2018,10,21,12,43,13.70
2018,10,21,12,44,13.70
2018,10,21,12,45,13.70
2018,10,21,12,46,13.80
2018,10,21,12,47,13.70
2018,10,21,12,48,13.70
2018,10,21,12,49,13.70
2018,10,21,12,50,13.70
2018,10,21,12,51,13.70
2018,10,21,12,52,13.70
2018,10,21,12,53,13.80
2018,10,21,12,54,13.80
2018,10,21,12,55,13.80
2018,10,21,12,56,13.90
2018,10,21,12,57,13.90
2018,10,21,12,58,14.00
2018,10,21,12,59,13.90
2018,10,21,13,00,13.90
2018,10,21,13,01,14.00
2018,10,21,13,02,14.00
2018,10,21,13,03,14.00
2018,10,21,13,04,14.00
2018,10,21,13,05,14.00
2018,10,21,13,06,14.00
2018,10,21,13,07,14.10
2018,10,21,13,08,14.20
2018,10,21,13,09,14.20
2018,10,21,13,10,14.20
2018,10,21,13,11,14.20
2018,10,21,13,12,14.20
2018,10,21,13,13,14.30
2018,10,21,13,14,14.30
2018,10,21,13,15,14.30
2018,10,21,13,16,14.40
2018,10,21,13,17,14.50
2018,10,21,13,18,14.50
2018,10,21,13,19,14.60
2018,10,21,13,20,14.60
2018,10,21,13,21,14.70
2018,10,21,13,22,14.70
2018,10,21,13,23,14.60
2018,10,21,13,24,14.70
2018,10,21,13,25,14.80
2018,10,21,13,26,14.80
2018,10,21,13,27,14.80
2018,10,21,13,28,14.70
2018,10,21,13,29,14.60
2018,10,21,13,30,14.60
2018,10,21,13,31,14.50
2018,10,21,13,32,14.50
2018,10,21,13,33,14.40
2018,10,21,13,34,14.40
2018,10,21,13,35,14.40
2018,10,21,13,36,14.40
2018,10,21,13,37,14.50
2018,10,21,13,38,14.50
2018,10,21,13,39,14.50
2018,10,21,13,40,14.50
2018,10,21,13,41,14.50
2018,10,21,13,42,14.50
2018,10,21,13,43,14.40
2018,10,21,13,44,14.30
2018,10,21,13,45,14.20
2018,10,21,13,46,14.10
2018,10,21,13,47,14.00
2018,10,21,13,48,13.80
2018,10,21,13,49,13.80
2018,10,21,13,50,13.70
2018,10,21,13,51,13.70
2018,10,21,13,52,13.70
2018,10,21,13,53,13.70
2018,10,21,13,54,13.70
2018,10,21,13,55,13.70
2018,10,21,13,56,13.60
2018,10,21,13,57,13.50
2018,10,21,13,58,13.40
2018,10,21,13,59,13.30
2018,10,21,14,00,13.20
2018,10,21,14,01,13.20
2018,10,21,14,02,13.10
2018,10,21,14,03,13.00
2018,10,21,14,04,13.00
2018,10,21,14,05,13.00
2018,10,21,14,06,13.10
2018,10,21,14,07,13.10
2018,10,21,14,08,13.10
2018,10,21,14,09,13.10
2018,10,21,14,10,13.20
2018,10,21,14,11,13.20
2018,10,21,14,12,13.20
2018,10,21,14,13,13.20
2018,10,21,14,14,13.20
2018,10,21,14,15,13.20
2018,10,21,14,16,13.20
2018,10,21,14,17,13.20
2018,10,21,14,18,13.20
2018,10,21,14,19,13.20
2018,10,21,14,20,13.20
2018,10,21,14,21,13.30
2018,10,21,14,22,13.30
2018,10,21,14,23,13.30
2018,10,21,14,24,13.30
2018,10,21,14,25,13.30
2018,10,21,14,26,13.40
2018,10,21,14,27,13.40
2018,10,21,14,28,13.40
2018,10,21,14,29,13.40
2018,10,21,14,30,13.40
2018,10,21,14,31,13.40
2018,10,21,14,32,13.50
2018,10,21,14,33,13.50
2018,10,21,14,34,13.50
2018,10,21,14,35,13.60
2018,10,21,14,36,13.70
2018,10,21,14,37,13.80
2018,10,21,14,38,13.80
2018,10,21,14,39,13.80
2018,10,21,14,40,13.90
2018,10,21,14,41,14.00
2018,10,21,14,42,14.10
2018,10,21,14,43,14.20
2018,10,21,14,44,14.20
2018,10,21,14,45,14.20
2018,10,21,14,46,14.20
2018,10,21,14,47,14.20
2018,10,21,14,48,14.20
2018,10,21,14,49,14.30
2018,10,21,14,50,14.30
2018,10,21,14,51,14.40
2018,10,21,14,52,14.40
2018,10,21,14,53,14.40
2018,10,21,14,54,14.40
2018,10,21,14,55,14.30
2018,10,21,14,56,14.20
2018,10,21,14,57,14.20
2018,10,21,14,58,14.10
2018,10,21,14,59,14.10
2018,10,21,15,00,14.10
2018,10,21,15,01,14.10
2018,10,21,15,02,14.10
2018,10,21,15,03,14.10
2018,10,21,15,04,14.10
2018,10,21,15,05,14.10
2018,10,21,15,06,14.10
2018,10,21,15,07,14.10
2018,10,21,15,08,14.10
2018,10,21,15,09,14.20
2018,10,21,15,10,14.20
2018,10,21,15,11,14.30
2018,10,21,15,12,14.40
2018,10,21,15,13,14.40
2018,10,21,15,14,14.40
2018,10,21,15,15,14.40
2018,10,21,15,16,14.30
2018,10,21,15,17,14.30
2018,10,21,15,18,14.30
2018,10,21,15,19,14.30
2018,10,21,15,20,14.20
2018,10,21,15,21,14.20
2018,10,21,15,22,14.20
2018,10,21,15,23,14.20
2018,10,21,15,24,14.20
2018,10,21,15,25,14.10
2018,10,21,15,26,14.00
2018,10,21,15,27,14.00
2018,10,21,15,28,13.90
2018,10,21,15,29,13.80
2018,10,21,15,30,13.80
2018,10,21,15,31,13.70
2018,10,21,15,32,13.70
2018,10,21,15,33,13.70
2018,10,21,15,34,13.70
2018,10,21,15,35,13.70
2018,10,21,15,36,13.60
2018,10,21,15,37,13.60
2018,10,21,15,38,13.60
2018,10,21,15,39,13.50
2018,10,21,15,40,13.50
2018,10,21,15,41,13.40
2018,10,21,15,42,13.40
2018,10,21,15,43,13.40
2018,10,21,15,44,13.30
2018,10,21,15,45,13.30
2018,10,21,15,46,13.30
2018,10,21,15,47,13.40
2018,10,21,15,48,13.40
2018,10,21,15,49,13.50
2018,10,21,15,50,13.50
2018,10,21,15,51,13.50
2018,10,21,15,52,13.50
2018,10,21,15,53,13.50
2018,10,21,15,54,13.50
2018,10,21,15,55,13.60
2018,10,21,15,56,13.60
2018,10,21,15,57,13.60
2018,10,21,15,58,13.70
2018,10,21,15,59,13.80
2018,10,21,16,00,13.80
2018,10,21,16,01,13.90
2018,10,21,16,02,13.90
2018,10,21,16,03,13.90
2018,10,21,16,04,13.80
2018,10,21,16,05,13.80
2018,10,21,16,06,13.80
2018,10,21,16,07,13.80
2018,10,21,16,08,13.80
2018,10,21,16,09,13.80
2018,10,21,16,10,13.80
2018,10,21,16,11,13.80
2018,10,21,16,12,13.80
2018,10,21,16,13,13.80
2018,10,21,16,14,13.80
2018,10,21,16,15,13.80
2018,10,21,16,16,13.80
2018,10,21,16,17,13.80
2018,10,21,16,18,13.80
2018,10,21,16,19,13.70
2018,10,21,16,20,13.70
2018,10,21,16,21,13.70
2018,10,21,16,22,13.70
2018,10,21,16,23,13.70
2018,10,21,16,24,13.80
2018,10,21,16,25,13.80
2018,10,21,16,26,13.80
2018,10,21,16,27,13.90
2018,10,21,16,28,13.90
2018,10,21,16,29,13.80
2018,10,21,16,30,13.80
2018,10,21,16,31,13.80
2018,10,21,16,32,13.80
2018,10,21,16,33,13.80
2018,10,21,16,34,13.80
2018,10,21,16,35,13.70
2018,10,21,16,36,13.70
2018,10,21,16,37,13.70
2018,10,21,16,38,13.60
2018,10,21,16,39,13.50
2018,10,21,16,40,13.50
2018,10,21,16,41,13.50
2018,10,21,16,42,13.50
2018,10,21,16,43,13.50
2018,10,21,16,44,13.50
2018,10,21,16,45,13.50
2018,10,21,16,46,13.50
2018,10,21,16,47,13.50
2018,10,21,16,48,13.50
2018,10,21,16,49,13.50
2018,10,21,16,50,13.50
2018,10,21,16,51,13.50
2018,10,21,16,52,13.50
2018,10,21,16,53,13.50
2018,10,21,16,54,13.50
2018,10,21,16,55,13.50
2018,10,21,16,56,13.60
2018,10,21,16,57,13.60
2018,10,21,16,58,13.60
2018,10,21,16,59,13.60
2018,10,21,17,00,13.60
2018,10,21,17,01,13.70
2018,10,21,17,02,13.70
2018,10,21,17,03,13.70
2018,10,21,17,04,13.60
2018,10,21,17,05,13.60
2018,10,21,17,06,13.60
2018,10,21,17,07,13.60
2018,10,21,17,08,13.70
2018,10,21,17,09,13.70
2018,10,21,17,10,13.70
2018,10,21,17,11,13.70
2018,10,21,17,12,13.70
2018,10,21,17,13,13.70
2018,10,21,17,14,13.60
2018,10,21,17,15,13.60
2018,10,21,17,16,13.50
2018,10,21,17,17,13.50
2018,10,21,17,18,13.40
2018,10,21,17,19,13.40
2018,10,21,17,20,13.30
2018,10,21,17,21,13.30
2018,10,21,17,22,13.30
2018,10,21,17,23,13.30
2018,10,21,17,24,13.30
2018,10,21,17,25,13.20
2018,10,21,17,26,13.20
2018,10,21,17,27,13.20
2018,10,21,17,28,13.20
2018,10,21,17,29,13.10
2018,10,21,17,30,13.10
2018,10,21,17,31,13.10
2018,10,21,17,32,13.10
2018,10,21,17,33,13.10
2018,10,21,17,34,13.10
2018,10,21,17,35,13.00
2018,10,21,17,36,13.00
2018,10,21,17,37,13.00
2018,10,21,17,38,13.00
2018,10,21,17,39,13.10
2018,10,21,17,40,13.10
2018,10,21,17,41,13.10
2018,10,21,17,42,13.10
2018,10,21,17,43,13.10
2018,10,21,17,44,13.10
2018,10,21,17,45,13.10
2018,10,21,17,46,13.10
2018,10,21,17,47,13.10
2018,10,21,17,48,13.10
2018,10,21,17,49,13.10
2018,10,21,17,50,13.10
2018,10,21,17,51,13.00
2018,10,21,17,52,13.00
2018,10,21,17,53,13.00
2018,10,21,17,54,12.90
2018,10,21,17,55,12.90
2018,10,21,17,56,12.90
2018,10,21,17,57,12.90
2018,10,21,17,58,12.90
2018,10,21,17,59,12.90
2018,10,21,18,00,12.80
2018,10,21,18,01,12.80
2018,10,21,18,02,12.80
2018,10,21,18,03,12.80
2018,10,21,18,04,12.80
2018,10,21,18,05,12.80
2018,10,21,18,06,12.80
2018,10,21,18,07,12.80
2018,10,21,18,08,12.70
2018,10,21,18,09,12.70
2018,10,21,18,10,12.70
2018,10,21,18,11,12.70
2018,10,21,18,12,12.70
2018,10,21,18,13,12.70
2018,10,21,18,14,12.70
2018,10,21,18,15,12.70
2018,10,21,18,16,12.70
2018,10,21,18,17,12.70
2018,10,21,18,18,12.70
2018,10,21,18,19,12.60
2018,10,21,18,20,12.60
2018,10,21,18,21,12.60
2018,10,21,18,22,12.60
2018,10,21,18,23,12.60
2018,10,21,18,24,12.50
2018,10,21,18,25,12.50
2018,10,21,18,26,12.50
2018,10,21,18,27,12.50
2018,10,21,18,28,12.40
2018,10,21,18,29,12.40
2018,10,21,18,30,12.40
2018,10,21,18,31,12.30
2018,10,21,18,32,12.30
2018,10,21,18,33,12.30
2018,10,21,18,34,12.30
2018,10,21,18,35,12.30
2018,10,21,18,36,12.20
2018,10,21,18,37,12.20
2018,10,21,18,38,12.20
2018,10,21,18,39,12.10
2018,10,21,18,40,12.10
2018,10,21,18,41,12.10
2018,10,21,18,42,12.10
2018,10,21,18,43,12.10
2018,10,21,18,44,12.10
2018,10,21,18,45,12.10
2018,10,21,18,46,12.00
2018,10,21,18,47,12.00
2018,10,21,18,48,12.00
2018,10,21,18,49,11.90
2018,10,21,18,50,11.90
2018,10,21,18,51,11.80
2018,10,21,18,52,11.80
2018,10,21,18,53,11.80
2018,10,21,18,54,11.80
2018,10,21,18,55,11.70
2018,10,21,18,56,11.70
2018,10,21,18,57,11.60
2018,10,21,18,58,11.60
2018,10,21,18,59,11.60
2018,10,21,19,00,11.60
2018,10,21,19,01,11.60
2018,10,21,19,02,11.60
2018,10,21,19,03,11.50
2018,10,21,19,04,11.40
2018,10,21,19,05,11.40
2018,10,21,19,06,11.40
2018,10,21,19,07,11.40
2018,10,21,19,08,11.40
2018,10,21,19,09,11.40
2018,10,21,19,10,11.30
2018,10,21,19,11,11.30
2018,10,21,19,12,11.30
2018,10,21,19,13,11.20
2018,10,21,19,14,11.20
2018,10,21,19,15,11.20
2018,10,21,19,16,11.20
2018,10,21,19,17,11.10
2018,10,21,19,18,11.10
2018,10,21,19,19,11.10
2018,10,21,19,20,11.10
2018,10,21,19,21,11.10
2018,10,21,19,22,11.00